Flag for Switzerland Weather past 2 weeks in Dübendorf, Zurich, Switzerland

Now
54 °F

Cool.


Feels Like: 54 °F
Forecast: 47 / 64 °F
Wind: 3 mph from South

Location: Zurich Town / Ville.

Current Time: May 6, 2015 at 2:30:08 AM

Latest Report: May 6, 2015 at 1:00 AM


Visibility: N/A

Pressure: 29.98 "Hg

Humidity: 96%

Dew point: 53 °F

Location of DübendorfLocation

Historic Weather in Dübendorf — Graph

°F

Dübendorf temperature yesterday

Maximum temperature yesterday: 71 °F (at 12:00 PM)
Minimum temperature yesterday: 54 °F (at 9:00 PM)
Average temperature yesterday: 62 °F

Past Weeks' High & Low Weather Summary

 TemperatureHumidityPressure
High72 °F (Apr 22, 4:00 PM)99% (May 1, 11:00 AM)30.36 "Hg (May 1, 11:00 AM)
Low36 °F (Apr 29, 4:00 AM)19% (Apr 22, 7:00 PM)29.41 "Hg (Apr 27, 6:00 PM)
Average55 °F72%29.92 "Hg
* Reported Apr 21 1:00 AM — May 6 1:00 AM, Dübendorf, Weather by CustomWeather, © 2015

Note: Actual official high and low records may vary slightly from our data, if they occured in-between our weather recording intervals... More about our weather records

Advertising

Dübendorf weather history for previous 24 hours

 ConditionsComfort  
Time TempWeatherWind HumidityBarometerVisibility
1:00 AM
Wed, May 6
54 °FCool.3 mph96%29.98 "HgN/A
12:00 AM54 °FCool.1 mph97%29.97 "HgN/A
10:00 PM
Tue, May 5
55 °FCool.3 mph96%29.95 "HgN/A
9:00 PM54 °FCool.3 mph95%29.94 "HgN/A
8:00 PM56 °FOvercast.5 mph92%29.93 "HgN/A
7:00 PM56 °FCool.5 mph92%29.90 "HgN/A
6:00 PM61 °FCool.6 mph77%29.86 "HgN/A
5:00 PM64 °FMild.3 mph68%29.81 "HgN/A
4:00 PM64 °FMild.3 mph74%29.81 "HgN/A
3:00 PM67 °FMild.7 mph61%29.79 "HgN/A
2:00 PM69 °FOvercast.13 mph54%29.75 "HgN/A
1:00 PM71 °FMild.15 mph47%29.73 "HgN/A
12:00 PM71 °FMild.10 mph47%29.71 "HgN/A
11:00 AM68 °FMild.10 mph53%29.71 "HgN/A
10:00 AM64 °FMild.3 mph80%29.71 "HgN/A
9:00 AM63 °FMild.1 mph83%29.69 "HgN/A
8:00 AM61 °FCool.2 mph80%29.67 "HgN/A
7:00 AM58 °FCool.2 mph84%29.66 "HgN/A
6:00 AM60 °FCool.5 mph68%29.64 "HgN/A
5:00 AM61 °FCool.1 mph70%29.67 "HgN/A
4:00 AM61 °FCool.6 mph80%29.69 "HgN/A
3:00 AM58 °FCool.2 mph89%29.68 "HgN/A
2:00 AM60 °FCool.1 mph82%29.67 "HgN/A
Weather by CustomWeather, © 2015

See weather overviewHow to use our weather pages